Showing default

COSMOS 2094, 20739

Orbit data source: Space-Track

COSMOS 2094, 20739 is a payload satellite owned by UNKS (CIS) in LEO that was launched on Wed, 08 Aug 1990 UTC via a TSIKLON-3 launch vehicle from the Plesetsk Missile And Space Complex (PKMTR). Payload-class satellites include a variety of spacecraft equipped with specific instruments for various scientific and technological missions. These include communications satellites like Starlink; space stations such as the ISS; scientific satellites like the Hubble; Earth observation satellites from companies like Planet Labs, Umbra, and HawkEye 360; GPS; miniature CubeSats for education and research; and military/defense satellites.

Loading next visibility...
Identifier
20739, 1990-070E
Orbit
LEO
Country
Flag of CISCIS
Related business
Manufacturer
NPO PM
Mission
Defense Communications
Bus & Motor
STRELA-3, Unknown motor
Mass
225 kg wet, 225 kg dry
Launch date (UTC)
1990-08-08 (35 years ago)
Launch vehicle
TSIKLON-3
Launch site
Plesetsk Missile And Space Complex (PKMTR)
Object type
Payload
Rocket body
Debris
Shape & HBR
Cyl, 0.8 m
Radar Cross Section
1.257 m², Large (>1 m²)

Expand to show TLE details & history
Last TLE update: 14 hours ago

TLE from 14 hours ago
0 COSMOS 2094
1 20739U 90070E   25353.12916466  .00000030  00000-0  10329-3 0  9991
2 20739  82.5763  47.2487 0012472 135.9843 251.9918 12.64749784632463
Epoch: 2025-12-19T03:05Z
TLE epoch observation values (Epoch: 2025-12-19T03:05:59.826Z)
Latitude
27.62438°
Longitude
-83.33471°
Altitude
1,409.662 km
Speed
7.156 km/s
True Right ascension
03h 24m 33s
True Declination
27° 29' 43"
Sunlit
Object was in full shadow at epoch
Visualization orbit readout
Latitude
Unknown
Longitude
Unknown
Altitude
Unknown
Speed
Unknown
Apparent Right ascension
Unknown
Apparent Declination
Unknown
Sunlit
N/A
Visualization observer readout
Local Sidereal Time
16:28:56
Azimuth
Unknown
Elevation
Unknown
Doppler factor
Unknown
Orbital elements
Apogee altitude
1,410.42 km
Perigee altitude
1,391.016 km
Semi-major axis
7,778.855 km
Eccentricity
0.00125
Inclination
82.5763°
RAAN
47.2487°
Arg. of periapsis
135.9843°
True anomaly
251.85595°
Mean anomaly
251.9918°
Eccentric anomaly
251.92387°
Mean motion
3.16351 °/min
Orbital period
113.8 mins
BSTAR
0.00010329
Loading maneuver chart data...
Computing Atmospheric mass density...
Loading historical data...
Loading historical data...
Loading historical data...
Loading historical data...
Loading historical data...
Loading historical data...
Loading historical data...

Documentation

Showing up to 5 results
|